Location: Clanezzo
(45.7500°N, 9.6000°E)
Time: 21:39:52
(UTC+00:00)

STARS - Pass Details

Date: 05 July 2022
Orbit: 620 x 637 km, 98.2° (Epoch: 07 August)

Event Time Altitude Azimuth Distance (km) Brightness Sun altitude
Rises 22:19:57 0° 11° (N) 2,928 ? -19.9°
Reaches altitude 10° 22:22:10 10° 10° (N) 2,013 ? -20.0°
Maximum altitude 22:26:31 72° 287° (WNW) 661 ? -20.2°
Enters shadow 22:28:01 40° 213° (SSW) 925 ? -20.3°
